Regional Weather Roundup
Issued by NWS

Home | Current Version | Previous Version | Text Only | Print | Product List | Glossary On
Versions: 1 2 3 4 5 6 7 8 9 10 11 12 13 14 15 16 17 18 19 20 21 22 23 24 25 26 27 28 29 30 31 32 33 34 35 36 37 38 39 40 41 42 43 44 45 46 47 48 49 50
000
ASUS43 KLOT 261210
RWRIL

ILLINOIS REGIONAL WEATHER ROUNDUP
NATIONAL WEATHER SERVICE CHICAGO/ROMEOVILLE IL
600 AM CST MON JAN 26 2015

NOTE: "FAIR" INDICATES FEW OR NO CLOUDS BELOW 12,000 FEET WITH NO
SIGNIFICANT WEATHER AND/OR OBSTRUCTIONS TO VISIBILITY.

* THESE STATIONS ARE NOT UNDER NWS QUALITY CONTROL. THEY ALSO MAY NOT
  REPORT WEATHER SUCH AS PRECIPITATION OR FOG.

ILZ001-002-007-009-015-016-024-261300-
NORTHWEST ILLINOIS

CITY           SKY/WX    TMP DP  RH WIND       PRES   REMARKS
MOLINE         CLOUDY    18  13  80 SE5       29.97F WCI  11
6HR MIN TEMP:  12; 6HR MAX TEMP:  20;

STERLING*      MOCLDY    18  12  79 CALM      29.97F
SAVANNA*       MOCLDY    18  14  85 CALM      29.99S
$$

ILZ003-004-008-010-011-017-018-261300-
NORTH CENTRAL ILLINOIS

CITY           SKY/WX    TMP DP  RH WIND       PRES   REMARKS
ROCKFORD       CLOUDY    16  10  77 CALM      29.98F
6HR MIN TEMP:  12; 6HR MAX TEMP:  17;

FREEPORT*      MOCLDY    15  11  85 CALM      29.97F
ROCHELLE*      MOCLDY    14  11  87 CALM      29.98F
DE KALB*       PTCLDY    12   9  87 N3        29.96S
PERU*          MOCLDY    15  12  88 NW3       29.99S
$$

ILZ005-006-012>014-019>023-261300-
NORTHEAST ILLINOIS

CITY           SKY/WX    TMP DP  RH WIND       PRES   REMARKS
CHICAGO-OHARE  MOCLDY    16  12  84 NW6       29.95F WCI   7
6HR MIN TEMP:  15; 6HR MAX TEMP:  24;

CHICAGO-MIDWAY PTCLDY    23  16  74 N3        29.96F
6HR MIN TEMP:  22; 6HR MAX TEMP:  26;

AURORA         PTCLDY    14  10  84 CALM      29.98R
6HR MIN TEMP:  13; 6HR MAX TEMP:  18;

LANSING*       CLEAR     17  13  85 CALM      29.97S
JOLIET*        CLEAR     16  13  88 CALM      29.98R
WAUKEGAN       CLOUDY    17  13  84 CALM      29.95F
6HR MIN TEMP:  17; 6HR MAX TEMP:  23;

DUPAGE AIRPORT PTCLDY    14  10  84 NW6       29.96S WCI   5
6HR MIN TEMP:  13; 6HR MAX TEMP:  19;

KANKAKEE*      CLOUDY    22  19  89 NW3       29.97S
WHEELING       PTCLDY    16  12  84 NW3       29.98S
6HR MIN TEMP:  16; 6HR MAX TEMP:  24;

MORRIS*        PTCLDY    16  13  90 N5        29.98R WCI   9
ROMEOVILLE*    PTCLDY    15  13  89 NW3       29.97R
NORTHERLY ISL    N/A     23  15  71 N5          N/A  WCI  17
$$

LMZ740>746-261300-
SOUTHERN LAKE MICHIGAN

STATION/POSITION SKY/WX   TEMP    WIND        PRES    VSBY  WAVE
                          AIR SEA DIR/SP/G                  HT/PER
                          (F)     (DEG/KT/KT) (MB)    (MI)  (FT/S)
WAUKEGAN HARBOR            20        CALM       N/A
HARRISON CRIB              23      40/  5/  8   N/A
BURNHAM HARBOR             23      40/  4/  8   N/A
CALUMET HARBOR             22      20/  4/  6   N/A
MICHIGAN CITY              16      60/  6/  6   N/A
$$

ILZ025>027-034>036-040-047-049-050-058-095>099-261300-
WEST-CENTRAL ILLINOIS

CITY           SKY/WX    TMP DP  RH WIND       PRES   REMARKS
QUINCY         CLOUDY    26  22  84 W3        30.03R
GALESBURG*     MOCLDY    19  17  89 CALM      29.99F
MACOMB*        CLOUDY    22  19  89 W6        30.03R WCI  14
JACKSONVILLE*  CLEAR     22  19  85 W6        30.02S WCI  15
PITTSFIELD*    CLOUDY    27  23  85 W5        30.03S WCI  22
$$

ILZ028>032-037-038-041>044-048-051>054-059>061-261300-
CENTRAL ILLINOIS

CITY           SKY/WX    TMP DP  RH WIND       PRES   REMARKS
PONTIAC        PTCLDY    20  17  88 NW7       30.00R WCI  11
BLOOMINGTON    PTCLDY    19  16  88 NW6       29.98F WCI  11
DECATUR        CLOUDY    23  21  92 NW7       29.98F WCI  15
PEORIA         MOCLDY    20  14  77 NW6       30.00S WCI  12
6HR MIN TEMP:  20; 6HR MAX TEMP:  23;

LACON*         CLOUDY    17  12  83 CALM      30.00R
LINCOLN*       PTCLDY    22  18  85 CALM      30.02R
SPRINGFIELD    CLEAR     21  17  84 W6        30.02S WCI  13
6HR MIN TEMP:  20; 6HR MAX TEMP:  26;

TAYLORVILLE    CLEAR     23  19  86 NW5       30.00F WCI  17
$$

ILZ033-039-045-046-055>057-062-063-261300-
EAST-CENTRAL ILLINOIS

CITY           SKY/WX    TMP DP  RH WIND       PRES   REMARKS
CHAMPAIGN      CLOUDY    26  22  84 NW9       29.95F WCI  17
DANVILLE*      CLOUDY    24  20  86 NE7       29.93S WCI  15
RANTOUL*       CLOUDY    26  21  80 N8        29.95F WCI  18
MATTOON        CLOUDY    26  22  84 NW12      29.95F WCI  16
PARIS*         CLOUDY    26  22  83 NE3       29.97S
$$

ILZ079-100>102-261300-
SOUTHWEST ILLINOIS

CITY           SKY/WX    TMP DP  RH WIND       PRES   REMARKS
BELLEVILLE     CLEAR     22  20  92 NW6       30.03F WCI  15
CAHOKIA*       CLEAR     27  22  81 W6        30.05S WCI  20
SPARTA*        CLEAR     26  21  83 NW5       30.04S WCI  20
$$

ILZ064>066-069>071-074>076-080>082-084>086-088>090-092>094-261300-
SOUTH-CENTRAL ILLINOIS

CITY           SKY/WX    TMP DP  RH WIND       PRES   REMARKS
CARBONDALE     PTCLDY    27  21  78 NW10      30.04R WCI  17
6HR MIN TEMP:  27; 6HR MAX TEMP:  33;

CAIRO*         MOCLDY    33  28  82 NW8       30.05R WCI  26
EFFINGHAM*     CLOUDY    28  22  78 W8        30.00S WCI  20
MARION         CLOUDY    28  23  80 NW9       30.04R WCI  20
MT. VERNON     CLOUDY    28  19  69 N3        30.02R
CENTRALIA*     CLOUDY    27  21  80 NW12      30.02R WCI  16
SALEM*         CLOUDY    29  24  81 NW10      30.02R WCI  19
METROPOLIS*    MOCLDY    31  27  84 NW9G18    30.01S WCI  23
$$

ILZ067-068-072-073-078-083-087-091-261300-
SOUTHEAST ILLINOIS

CITY           SKY/WX    TMP DP  RH WIND       PRES   REMARKS
LAWRENCEVILLE  CLOUDY    29  24  82 NW13      29.98R WCI  19
FLORA*         CLOUDY    29  25  86 NW12      30.01R WCI  19
FAIRFIELD*     CLOUDY    30  26  83 NW6       30.00R WCI  24
HARRISBURG*    CLOUDY    31  26  81 NW13      30.03R WCI  21
ROBINSON*      CLOUDY    28  24  84 N9        29.99R WCI  20
CARMI*         CLOUDY    32  28  86 NW14      30.00R WCI  22
$$

ABBREVIATIONS USED IN REMARKS
   TC - TEMPERATURE IN CELSIUS
  WCI - WIND CHILL INDEX
   HX - HEAT INDEX
  VSB - VISIBILITY
$$



USA.gov is the U.S. government's official web portal to all federal, state and local government web resources and services.